DW4764 Weather Reports


time (UTC)temp
F
wind
direction
speed
knots
gust
knots
rain 1hr
in
rain 24hr
in
rain mn
in
humidity
%
barometer
mb
20260507210029 60 43 4.3 15.6 0.00 0.11 0.05 36 1016.7
20260507204527 59 266 6.1 14.8 0.00 0.11 0.05 33 1017.0
20260507203025 60 271 1.7 10.4 0.00 0.11 0.05 35 1017.4
20260507201522 60 174 4.3 9.6 0.00 0.11 0.05 34 1017.9
20260507200030 59 235 2.6 10.4 0.00 0.11 0.05 34 1018.1
20260507194514 58 335 3.5 14.8 0.00 0.12 0.05 36 1018.3
20260507193012 58 324 3.5 7.8 0.00 0.12 0.05 35 1018.5
20260507191510 57 266 3.5 7.0 0.00 0.12 0.05 34 1018.9
20260507190017 57 349 4.3 8.7 0.00 0.12 0.05 33 1019.3
20260507184504 57 22 3.5 7.8 0.00 0.12 0.05 32 1019.7
20260507183010 57 355 2.6 6.1 0.00 0.12 0.05 31 1019.8
20260507181501 57 292 2.6 7.8 0.00 0.12 0.05 32 1020.0
20260507180105 57 340 1.7 7.8 0.00 0.12 0.05 31 1020.1
20260507174557 56 250 2.6 6.1 0.00 0.12 0.05 30 1020.3
20260507173056 56 285 0.9 4.3 0.00 0.12 0.05 30 1020.7
20260507171556 56 281 0.9 6.1 0.00 0.12 0.05 31 1021.1
20260507170051 56 226 2.6 7.8 0.01 0.12 0.05 32 1021.3
20260507164547 55 298 0.9 4.3 0.01 0.12 0.05 33 1021.6
20260507163044 54 237 2.6 7.8 0.02 0.12 0.05 37 1021.8
20260507161540 52 226 1.7 6.1 0.02 0.12 0.05 40 1022.1
20260507160038 51 232 6.1 8.7 0.02 0.11 0.04 44 1022.3
20260507154537 49 243 3.5 7.0 0.03 0.11 0.04 49 1022.5
20260507153029 48 288 4.3 8.7 0.03 0.10 0.03 52 1022.8
20260507151526 47 242 3.5 7.0 0.03 0.10 0.03 59 1022.9
20260507150021 46 229 2.6 8.7 0.02 0.09 0.02 59 1022.9
20260507144519 45 239 2.6 7.0 0.01 0.08 0.01 56 1023.0
20260507143017 45 230 1.7 4.3 0.00 0.07 0.00 55 1023.1
20260507141513 43 221 1.7 5.2 0.00 0.07 0.00 56 1023.3
20260507140010 42 231 0.9 4.3 0.00 0.07 0.00 58 1023.4
20260507134506 41 233 0.9 5.2 0.00 0.07 0.00 59 1023.4
20260507133003 39 226 1.7 5.2 0.00 0.07 0.00 61 1023.3
20260507131616 37 213 0.0 3.5 0.00 0.07 0.00 66 1023.4
20260507130109 36 250 1.7 4.3 0.00 0.07 0.00 61 1023.4
20260507124606 36 250 0.0 4.3 0.00 0.07 0.00 60 1023.3
20260507123058 35 236 3.5 7.0 0.00 0.07 0.00 61 1023.1
20260507121549 33 265 3.5 7.0 0.00 0.07 0.00 63 1023.0
20260507120046 31 227 2.6 5.2 0.00 0.07 0.00 66 1022.9
20260507114547 32 249 1.7 7.0 0.00 0.07 0.00 66 1023.1
20260507113043 31 242 0.9 6.1 0.00 0.07 0.00 66 1023.2
20260507111544 30 242 3.5 7.0 0.00 0.07 0.00 70 1023.1
20260507110038 26 236 0.9 1.7 0.00 0.07 0.00 82 1023.3
20260507104540 28 22 0.0 2.6 0.00 0.07 0.00 77 1023.2
20260507103036 30 236 2.6 5.2 0.00 0.07 0.00 69 1023.3
20260507101541 30 222 1.7 5.2 0.00 0.07 0.00 69 1023.5
20260507100035 30 229 4.3 8.7 0.00 0.07 0.00 70 1023.8
20260507094531 29 212 1.7 4.3 0.00 0.07 0.00 72 1023.7
20260507093037 29 248 1.7 5.2 0.00 0.07 0.00 73 1023.7
20260507091528 30 238 2.6 5.2 0.00 0.07 0.00 71 1023.8
20260507090032 29 250 2.6 5.2 0.00 0.07 0.00 74 1023.9
20260507084526 29 233 0.9 4.3 0.00 0.07 0.00 74 1024.1
20260507083035 29 239 2.6 5.2 0.00 0.07 0.00 73 1024.0
20260507081525 29 233 2.6 7.0 0.00 0.07 0.00 75 1024.1
20260507080018 28 240 3.5 5.2 0.00 0.07 0.00 80 1024.1
20260507074526 27 238 2.6 5.2 0.00 0.07 0.00 82 1024.1
20260507073013 25 224 0.9 3.5 0.00 0.07 0.00 90 1024.3
20260507071512 26 235 0.0 1.7 0.00 0.07 0.00 87 1024.4
20260507070012 26 226 0.9 2.6 0.00 0.07 0.00 90 1024.5
20260507064506 25 203 0.0 2.6 0.00 0.07 0.00 92 1024.4
20260507063003 24 231 0.0 0.0 0.00 0.07 0.00 94 1024.5
20260507061600 25 243 0.0 0.0 0.00 0.07 0.00 94 1024.5
20260507054605 26 233 0.0 1.7 0.00 0.07 0.07 94 1024.1
20260507053057 26 211 0.9 2.6 0.00 0.07 0.07 94 1024.1
20260507051559 27 207 0.0 1.7 0.00 0.07 0.07 94 1024.1
20260507050054 27 234 0.9 2.6 0.00 0.07 0.07 93 1023.9
20260507044556 28 201 0.0 3.5 0.00 0.07 0.07 92 1023.9
20260507043053 28 160 2.6 5.2 0.00 0.07 0.07 92 1023.9
20260507041559 28 221 3.5 8.7 0.00 0.07 0.07 91 1023.9
20260507040059 28 210 3.5 7.0 0.00 0.07 0.07 91 1023.9
20260507034557 29 201 2.6 8.7 0.00 0.07 0.07 90 1023.8
20260507033049 29 203 3.5 11.3 0.00 0.07 0.07 89 1023.8
20260507031548 29 226 4.3 7.8 0.00 0.07 0.07 88 1023.6
20260507030048 29 211 6.1 9.6 0.00 0.07 0.07 88 1023.4
20260507024546 29 206 4.3 7.8 0.00 0.07 0.07 87 1023.3
20260507023045 30 174 3.5 10.4 0.00 0.07 0.07 87 1023.2
20260507021547 30 203 4.3 8.7 0.00 0.07 0.07 87 1023.2
20260507020053 31 207 3.5 9.6 0.01 0.07 0.07 85 1023.0
20260507014552 31 207 5.2 9.6 0.01 0.07 0.07 84 1022.9
20260507013043 32 219 4.3 7.0 0.01 0.07 0.07 82 1023.0
20260507011554 33 207 5.2 11.3 0.01 0.07 0.07 78 1022.8
20260507010042 35 195 3.5 7.0 0.00 0.06 0.06 77 1022.8
20260507004541 35 211 4.3 8.7 0.00 0.06 0.06 75 1022.8
20260507003040 35 193 3.5 8.7 0.00 0.06 0.06 74 1022.8
20260507001549 35 218 3.5 7.0 0.01 0.06 0.06 75 1022.8
20260507000039 35 189 4.3 7.8 0.01 0.06 0.06 75 1023.0
20260506234542 34 195 3.5 8.7 0.01 0.08 0.06 77 1022.8
20260506233033 33 165 4.3 7.8 0.02 0.08 0.06 79 1022.8
20260506231535 33 206 4.3 7.8 0.02 0.07 0.05 77 1022.9
20260506230028 32 200 4.3 7.0 0.02 0.07 0.05 78 1022.7
20260506224530 33 214 0.0 3.5 0.03 0.09 0.05 83 1022.9
20260506223024 31 63 0.9 3.5 0.02 0.08 0.04 81 1022.9
20260506221522 31 17 0.0 7.0 0.02 0.07 0.03 87 1023.1
20260506220019 30 1 0.9 8.7 0.02 0.07 0.03 86 1023.1
20260506214517 30 26 5.2 8.7 0.01 0.10 0.02 87 1023.1
20260506213021 30 25 3.5 11.3 0.01 0.10 0.02 86 1023.2
20260506211517 30 358 2.6 6.1 0.00 0.09 0.01 89 1023.3